User: anonymous   Login
Location: Bridgewater Hill Observatory
(43.5992°N, 72.6989°W)
Time: 11:07:44
(UTC-05:00)
Language:

Cosmos 1452 Rocket - Orbit

View from above orbital plane
View from above orbital plane
View from above satellite
View from above satellite

Ground track
Ground track

The orbit data is extracted from the following two-line orbital elements,

1 13992U 83031B   15030.84522640  .00000242  00000-0  92652-4 0  6194
2 13992 074.0546 159.5704 0005538 344.9022 131.3491 14.35874042664161
Epoch (UTC): 30 January 2015 20:17:07
Eccentricity: 0.0005538
inclination: 74.0546°
perigee height: 768 km
apogee height: 776 km
right ascension of ascending node: 159.5704°
argument of perigee: 344.9022°
revolutions per day: 14.35874042
mean anomaly at epoch: 131.3491°
orbit number at epoch: 66416

The dashed part of the orbit path shows where the satellite is in the earth's shadow,  

DLR